Terminal Aerodrome Forecast
Issued by NWS Dodge City, KS

Home | Current Version | Previous Version | Graphics & Text | Print | Product List | Glossary Off
Versions: 1 2 3 4 5 6 7 8 9 10 11 12 13 14 15 16 17 18 19 20 21 22 23 24 25

000
FTUS43 KDDC 232320
TAFDDC
TAF
KDDC 232320Z 2400/2424 35020G30KT 5SM -SN OVC022
     FM240100 34018G28KT P6SM OVC015
     FM240600 33017G24KT P6SM FEW040
     FM241200 32014KT P6SM SKC=

USA.gov is the U.S. government's official web portal to all federal, state and local government web resources and services.